Погода в Кахибе

Россия / Республика Дагестан     42°25′44″N   46°35′47″E
темп.,
°C
ветер,
м/с
пор.,
м/с
влажн.,
%
обл.,
%
осадки,
мм/ч
давл.,
гПа
погр.,
м
17 мая, пн
пн1700:00+8ююз444770 0.0 101355
03:00+8юз435226 0.0 101349
06:00+10юз33587 0.0 101274
09:00+19юз233597 0.0 10091128
12:00+21зюз25230 0.0 10082805
15:00+22юз23230 0.0 10062753
18:00+18юз224190 0.0 100726
21:00+12ююз3362100 0.0 101070
18 мая, вт
вт1800:00+10ююз226995 0.1 101053
03:00+9юз336925 0.2 100933
06:00+10з23731 0.5 1009127
09:00+15ссв134812 1.3 10071456
12:00+16з1438100 1.9 10072135
15:00+14ссз345494 4.9 10091186
18:00+11ссз327492 2.6 1012194
21:00+8зюз22887 2.9 101520
19 мая, ср
ср1900:00+7юз11770 0.0 101411
03:00+6юз22640 0.0 101316
06:00+8ююз23550 0.0 101272
09:00+16ююз153825 0.0 10081307
12:00+19зюз163551 0.0 10082339
15:00+17зсз254281 0.2 10091967
18:00+12ссв338035 1.9 1013251
21:00+9ссз229596 3.4 1016233
20 мая, чт
чт2000:00+8ссз239496 0.4 1017334
03:00+7с119480 0.5 1018241
06:00+7вюв228793 0.0 1019485
09:00+11всв23624 0.1 1018900
12:00+15св33505 0.0 10161243
15:00+16св32545 0.0 10161106
18:00+12св22728 0.1 1018419
21:00+8ююз11800 0.1 102012
21 мая, пт
пт2100:00+7юз22650 0.0 102016
03:00+7юз22610 0.0 102016
06:00+10юз22570 0.0 102056
09:00+16св21400 0.0 1017616
12:00+20св32370 0.0 10161144
15:00+20всв32390 0.0 10151267
18:00+17всв22610 0.0 1017128
21:00+12ююз22730 0.0 101911